GFSNGP_850_temp_093.txt.gz
Temp
11 11 12 12 13 13 13 12 11 13 15 17 17 16 17 19 19 20 20 21 22 20 18 17 16 16 16 16 15 13 12 10 9 9 9 9 9 9 9 9 9 9 9 10
9 11 12 12 13 13 14 14 14 15 14 15 15 16 15 15 17 19 21 21 21 20 19 18 18 17 16 16 16 15 13 12 11 11 9 10 9 9 9 9 10 9 10 10
7 10 9 9 11 13 14 14 14 12 12 11 11 12 12 12 14 18 17 16 17 18 20 17 15 16 17 17 16 15 14 13 12 12 11 11 10 10 9 10 9 10 11 10
6 7 6 11 13 14 13 10 10 10 9 10 10 10 12 11 14 17 15 15 15 16 17 18 17 16 15 15 17 15 15 14 13 12 12 12 11 11 10 10 10 10 11 10
5 6 8 11 11 9 8 8 9 9 8 9 9 10 12 10 10 12 12 12 13 13 15 17 18 17 16 15 15 16 15 15 14 12 12 12 11 11 11 10 10 10 10 10
5 6 6 10 9 9 10 8 9 9 8 7 8 9 8 9 8 8 10 9 10 12 13 14 15 15 15 15 14 13 14 16 14 13 13 12 12 11 11 10 10 10 10 10
5 5 7 8 8 9 8 7 8 8 8 7 7 7 8 8 8 9 8 9 9 9 11 11 12 13 12 12 13 13 14 12 14 13 13 13 12 11 11 11 10 10 10 10
4 6 6 6 8 7 5 7 6 6 7 7 7 7 8 6 7 7 7 7 7 6 7 7 8 9 8 9 9 10 12 13 12 12 12 12 12 12 11 11 11 10 10 9
6 6 5 5 6 7 7 6 6 6 6 6 5 5 6 2 2 3 3 4 4 4 5 5 6 6 6 6 6 8 8 9 9 9 10 10 12 12 11 10 10 10 8 7
6 7 6 5 5 5 6 5 5 4 5 4 2 1 2 2 1 2 3 3 3 5 6 6 6 5 5 5 5 6 7 7 6 6 6 7 7 8 8 8 5 5 2 1
6 6 5 4 3 4 4 4 4 3 2 1 1 -1 -1 -1 -1 0 -0 1 3 5 4 4 4 3 3 4 5 5 5 4 3 3 2 2 2 2 3 2 1 0 -1 -5
3 0 4 3 2 2 2 3 3 3 1 -1 -1 -2 -2 -2 -2 -2 -2 0 1 1 1 2 2 2 1 1 2 6 5 3 1 -1 -2 -3 -3 -5 -3 -3 -2 -4 -3 -3
1 2 2 2 1 1 1 2 1 1 -0 -1 -3 -3 -3 -3 -3 -2 -2 -2 -1 -1 -1 0 1 2 0 1 1 1 3 2 1 -1 -2 -4 -5 -5 -6 -6 -5 -5 -5 -4
1 2 2 2 1 -0 -0 -0 -0 -1 -2 -2 -4 -4 -4 -4 -4 -3 -3 -3 -3 -2 -2 -1 -1 -1 -2 -1 -0 0 -0 -1 -2 -3 -3 -4 -5 -7 -6 -6 -6 -7 -7 -6
-1 -0 0 0 -1 -2 -2 -2 -3 -4 -5 -5 -4 -4 -5 -6 -6 -6 -6 -5 -4 -4 -4 -4 -3 -3 -3 -3 -2 -2 -3 -3 -4 -4 -5 -5 -5 -5 -6 -6 -7 -8 -9 -9
-3 -4 -3 -3 -3 -4 -4 -5 -6 -6 -6 -7 -7 -7 -7 -8 -8 -8 -7 -7 -5 -7 -7 -6 -5 -6 -5 -4 -3 -4 -5 -5 -5 -6 -6 -6 -7 -7 -7 -8 -9 -10 -10 -11
-6 -6 -6 -6 -5 -5 -6 -6 -7 -8 -8 -8 -9 -9 -9 -9 -9 -9 -9 -8 -8 -8 -8 -8 -8 -7 -6 -6 -5 -6 -6 -6 -6 -7 -7 -7 -8 -8 -9 -10 -11 -11 -12 -12
-8 -8 -8 -7 -7 -7 -8 -8 -9 -9 -9 -10 -10 -10 -10 -10 -10 -10 -10 -10 -9 -9 -9 -9 -8 -8 -7 -7 -7 -7 -7 -8 -8 -9 -9 -10 -10 -11 -11 -12 -12 -12 -13 -13
-9 -10 -10 -9 -9 -9 -10 -11 -11 -11 -11 -11 -11 -11 -11 -11 -11 -11 -10 -9 -9 -10 -10 -9 -8 -8 -7 -7 -7 -8 -8 -8 -9 -9 -10 -11 -11 -12 -12 -12 -13 -13 -14 -14
-11 -11 -12 -11 -11 -11 -11 -12 -12 -12 -12 -12 -12 -12 -12 -12 -11 -11 -11 -11 -12 -12 -12 -11 -10 -9 -9 -10 -9 -9 -9 -9 -10 -11 -12 -12 -12 -13 -13 -14 -14 -15 -15 -15
-12 -12 -13 -13 -13 -13 -13 -12 -12 -12 -12 -12 -12 -12 -12 -12 -12 -12 -11 -12 -13 -13 -12 -11 -10 -10 -11 -11 -11 -10 -11 -11 -12 -12 -13 -13 -14 -14 -15 -15 -15 -15 -16 -16
-13 -13 -13 -13 -13 -14 -14 -13 -13 -13 -13 -13 -13 -13 -13 -13 -13 -12 -13 -13 -14 -13 -13 -13 -13 -12 -11 -11 -11 -11 -11 -12 -13 -13 -14 -14 -14 -15 -16 -16 -16 -16 -16 -16
-13 -13 -13 -13 -13 -14 -14 -13 -13 -13 -13 -13 -14 -13 -13 -14 -14 -13 -13 -14 -14 -14 -13 -13 -13 -12 -12 -12 -12 -13 -13 -13 -14 -14 -14 -15 -15 -15 -15 -15 -15 -16 -16 -16
-13 -13 -14 -14 -14 -13 -13 -14 -14 -14 -14 -14 -14 -14 -14 -14 -14 -15 -15 -16 -15 -14 -13 -14 -14 -14 -14 -14 -14 -13 -14 -14 -14 -14 -14 -14 -15 -15 -16 -16 -16 -16 -17 -16
-12 -13 -13 -13 -13 -14 -14 -14 -14 -14 -14 -14 -15 -15 -15 -15 -14 -16 -15 -15 -15 -14 -14 -14 -14 -14 -14 -15 -15 -15 -15 -15 -15 -15 -16 -16 -16 -16 -16 -17 -17 -17 -17 -17
-12 -12 -12 -13 -13 -14 -14 -14 -14 -15 -15 -15 -16 -16 -16 -16 -16 -16 -16 -16 -16 -16 -16 -15 -15 -15 -15 -15 -15 -15 -16 -16 -16 -16 -16 -16 -16 -17 -17 -17 -17 -17 -18 -18
-12 -13 -13 -13 -13 -14 -14 -14 -15 -15 -16 -16 -16 -17 -17 -17 -17 -17 -17 -16 -16 -16 -16 -16 -16 -16 -16 -16 -16 -16 -16 -16 -16 -17 -17 -17 -17 -17 -18 -18 -18 -18 -18 -19

GFSNGP_850_temp_096.txt.gz
Temp
9 10 10 11 9 10 11 10 9 11 12 13 12 13 13 13 13 15 16 17 18 16 15 14 14 15 16 15 15 14 13 13 9 9 8 8 8 8 8 8 8 9 8 8
8 10 10 10 11 11 12 13 12 13 12 10 11 11 11 10 12 15 15 13 15 16 14 14 14 14 15 16 15 14 14 13 13 10 9 9 8 8 8 8 8 9 9 9
7 8 8 9 10 11 12 9 10 10 9 9 9 10 9 9 11 12 11 9 11 10 11 13 13 12 13 13 12 13 13 13 13 12 11 9 9 8 8 8 8 9 9 9
5 6 5 10 11 10 9 8 8 8 8 8 8 10 8 8 8 7 7 7 9 10 12 12 12 12 12 13 16 14 13 13 12 12 11 10 9 9 9 8 8 8 9 9
5 4 7 10 9 9 9 8 9 7 8 8 8 10 9 8 6 6 6 6 6 7 10 12 13 12 13 14 13 12 12 11 11 12 12 11 11 10 10 9 9 9 9 10
4 6 6 8 9 9 9 8 7 7 7 7 8 7 7 7 6 5 5 8 9 9 8 9 9 10 11 13 12 11 10 10 10 10 11 11 11 11 11 10 10 9 9 9
5 5 6 7 7 7 7 5 5 6 6 6 6 4 4 4 3 3 3 5 6 8 10 9 10 9 9 9 10 10 10 10 10 11 10 10 10 10 11 11 10 9 9 9
4 5 5 6 7 7 5 4 5 5 5 5 4 4 5 2 4 2 3 4 5 6 7 8 8 6 6 6 6 7 8 8 9 10 10 10 10 10 10 10 10 10 10 9
6 5 5 4 5 6 5 5 4 4 3 3 3 1 1 4 2 3 3 3 3 4 5 8 8 6 6 5 5 6 7 7 7 7 8 9 9 10 10 10 10 9 8 8
6 5 5 4 4 4 4 4 3 3 2 2 1 -1 -2 -1 1 3 2 1 2 3 5 5 4 4 3 2 3 4 6 6 6 6 6 6 5 5 4 4 6 7 5 3
4 3 3 2 2 3 3 3 2 1 1 0 -0 -1 -2 -3 -2 -1 0 1 1 2 2 1 1 3 3 2 2 3 3 2 4 5 5 4 3 0 -0 -2 -3 -2 -3 -3
2 -0 2 1 1 1 2 1 0 -0 -2 -2 -2 -2 -2 -3 -3 -2 -2 -1 -0 1 1 0 1 2 1 2 3 3 2 0 -2 -2 -0 1 2 0 -2 -3 -3 -4 -3 -3
-1 -0 -0 -0 0 0 -0 -1 -1 -1 -3 -4 -4 -3 -3 -3 -3 -3 -3 -3 -2 -2 -1 -1 0 1 0 1 1 2 2 -0 -1 -3 -4 -3 -4 -4 -3 -5 -5 -4 -5 -5
-2 -0 1 -0 -2 -1 -1 -2 -3 -4 -4 -4 -5 -4 -4 -4 -5 -4 -4 -5 -4 -4 -3 -2 -2 -1 -1 -0 0 1 -0 -1 -2 -2 -4 -5 -5 -5 -7 -7 -6 -7 -7 -6
-4 -3 -2 -2 -3 -2 -3 -3 -4 -5 -5 -5 -5 -6 -6 -6 -6 -6 -6 -5 -5 -5 -4 -4 -3 -3 -4 -3 -1 -2 -2 -2 -4 -4 -5 -6 -6 -6 -7 -7 -7 -8 -8 -8
-4 -4 -4 -4 -5 -5 -4 -5 -6 -7 -6 -6 -7 -7 -7 -8 -8 -8 -7 -6 -5 -6 -7 -6 -6 -6 -5 -4 -4 -3 -4 -4 -5 -5 -6 -7 -6 -6 -7 -8 -8 -9 -9 -9
-5 -6 -6 -6 -6 -6 -7 -7 -7 -8 -8 -8 -9 -9 -9 -9 -9 -8 -9 -8 -8 -8 -8 -7 -7 -7 -6 -5 -5 -6 -6 -6 -6 -6 -7 -7 -7 -7 -8 -8 -9 -9 -10 -10
-8 -8 -8 -8 -8 -8 -8 -8 -9 -10 -10 -10 -10 -10 -9 -9 -10 -10 -10 -9 -9 -8 -8 -8 -8 -7 -6 -6 -6 -6 -6 -7 -7 -8 -8 -8 -8 -9 -9 -9 -10 -10 -11 -12
-9 -9 -9 -10 -9 -9 -10 -10 -11 -11 -11 -11 -11 -11 -11 -11 -11 -10 -10 -9 -9 -9 -10 -10 -9 -8 -8 -8 -7 -7 -7 -8 -8 -8 -9 -9 -10 -10 -10 -11 -11 -12 -12 -13
-11 -11 -11 -11 -11 -11 -11 -12 -12 -12 -12 -12 -11 -12 -12 -12 -12 -11 -11 -10 -11 -12 -11 -11 -10 -9 -10 -10 -9 -9 -9 -9 -9 -10 -10 -11 -11 -12 -12 -12 -13 -13 -13 -14
-12 -12 -12 -12 -12 -13 -13 -13 -12 -12 -13 -12 -12 -12 -12 -12 -12 -12 -12 -12 -13 -12 -12 -11 -10 -10 -10 -10 -10 -10 -10 -10 -11 -11 -12 -12 -12 -13 -13 -13 -14 -14 -14 -14
-13 -13 -13 -13 -13 -13 -13 -13 -13 -13 -13 -13 -13 -13 -13 -13 -13 -13 -13 -13 -14 -13 -13 -12 -12 -12 -11 -11 -11 -11 -11 -12 -12 -13 -13 -13 -13 -14 -14 -15 -15 -15 -15 -15
-13 -13 -13 -13 -13 -14 -14 -14 -14 -14 -14 -14 -14 -14 -13 -14 -14 -13 -13 -14 -14 -14 -14 -13 -13 -13 -12 -12 -12 -12 -12 -13 -13 -14 -14 -15 -15 -15 -15 -15 -16 -16 -16 -16
-13 -13 -14 -14 -14 -14 -13 -14 -14 -14 -14 -14 -14 -14 -14 -14 -14 -14 -15 -15 -15 -15 -14 -13 -13 -13 -13 -13 -14 -14 -14 -14 -14 -14 -15 -15 -15 -16 -16 -16 -16 -16 -16 -17
-13 -13 -13 -14 -13 -14 -14 -14 -14 -14 -14 -14 -14 -15 -15 -15 -14 -15 -15 -15 -15 -15 -14 -14 -14 -14 -14 -14 -14 -14 -15 -15 -15 -15 -16 -16 -16 -16 -16 -16 -17 -17 -17 -17
-13 -13 -13 -13 -13 -13 -14 -14 -14 -15 -15 -15 -15 -16 -16 -16 -16 -16 -16 -16 -16 -16 -16 -16 -15 -15 -15 -15 -15 -15 -16 -16 -16 -16 -16 -16 -17 -17 -17 -17 -17 -17 -17 -18
-12 -13 -13 -13 -14 -14 -14 -14 -15 -15 -16 -16 -16 -17 -17 -17 -17 -17 -17 -17 -17 -16 -16 -16 -16 -16 -16 -16 -16 -16 -16 -16 -17 -17 -17 -17 -17 -17 -18 -18 -18 -18 -18 -18

GFSNGP_850_temp_102.txt.gz
Temp
6 5 7 8 7 9 9 9 8 10 9 9 8 8 8 8 11 9 8 7 5 7 7 9 9 10 9 10 10 10 11 10 10 11 10 9 9 9 9 9 9 10 9 9
6 7 7 8 8 7 8 8 9 9 9 8 9 9 8 7 7 7 6 5 4 5 7 8 8 9 10 11 11 10 10 9 9 9 9 9 9 9 9 9 9 9 9 9
6 6 6 7 8 8 7 7 8 8 7 8 8 8 6 6 5 5 4 4 3 3 5 6 7 9 9 9 10 10 10 9 9 9 9 9 9 8 8 8 9 9 9 8
5 5 4 6 8 8 7 7 8 8 8 8 7 5 4 4 3 3 2 2 2 2 3 4 6 8 9 9 10 10 10 10 10 9 9 9 9 8 8 8 8 8 8 8
5 4 6 7 7 7 8 6 6 6 7 6 7 6 5 3 2 1 1 1 2 2 2 4 6 7 7 9 9 9 9 9 9 9 9 9 9 8 8 8 8 8 8 8
4 5 4 7 6 6 7 7 5 5 6 6 6 6 5 2 1 -0 1 1 1 1 2 3 3 3 7 8 8 8 8 9 9 9 9 9 9 9 9 8 8 8 8 8
4 4 5 6 5 6 6 5 4 4 4 5 5 3 2 1 -1 -0 0 0 1 1 1 1 2 3 5 5 6 6 7 7 8 8 8 9 9 8 9 9 9 8 8 8
4 4 4 3 5 6 3 3 2 1 1 1 1 1 -0 -1 -1 -1 0 -0 0 1 0 1 2 3 3 3 3 4 5 5 6 6 7 7 8 8 9 8 8 8 8 8
5 5 3 2 2 3 3 1 0 0 -0 -0 -1 -1 -2 -2 -2 -2 -1 -1 -0 0 0 -0 1 1 2 2 3 4 4 5 5 5 5 6 6 7 7 8 8 8 7 6
4 3 2 1 1 1 1 -0 -1 -1 -1 -2 -2 -2 -3 -3 -3 -3 -2 -2 -1 -0 1 0 -0 1 0 -0 1 2 3 3 3 3 3 3 3 3 3 3 3 3 3 1
2 1 0 -1 -0 -1 -0 -1 -1 -2 -2 -3 -3 -2 -3 -4 -4 -4 -4 -3 -2 -1 -0 -0 0 0 1 1 0 0 0 1 1 0 0 1 1 -0 -0 -0 -0 0 -1 -1
1 -1 -0 -2 -2 -2 -0 -1 -2 -2 -4 -4 -3 -4 -4 -4 -4 -4 -5 -4 -3 -3 -2 -1 -0 -0 -0 -0 -0 -0 -1 -1 -1 -1 -2 -3 -3 -4 -5 -4 -3 -3 -3 -2
-3 -2 -2 -3 -3 -3 -2 -3 -3 -3 -4 -4 -5 -5 -5 -5 -5 -5 -5 -4 -4 -4 -4 -3 -2 -1 -2 -2 -2 -1 -1 -2 -2 -2 -3 -4 -5 -5 -6 -7 -6 -6 -6 -5
-3 -2 -2 -3 -4 -4 -4 -4 -4 -5 -5 -5 -6 -6 -6 -6 -6 -6 -6 -6 -6 -5 -5 -4 -4 -3 -3 -3 -3 -2 -2 -2 -2 -3 -4 -4 -5 -6 -5 -5 -5 -7 -7 -6
-4 -4 -4 -5 -5 -5 -5 -5 -5 -6 -7 -6 -6 -6 -7 -7 -7 -7 -7 -7 -7 -6 -6 -6 -5 -5 -5 -5 -4 -3 -3 -3 -3 -4 -5 -5 -5 -5 -6 -6 -7 -7 -8 -7
-5 -5 -5 -5 -6 -6 -7 -6 -7 -9 -9 -8 -8 -8 -9 -8 -8 -8 -8 -7 -7 -7 -7 -7 -6 -7 -6 -6 -5 -5 -5 -5 -5 -5 -6 -6 -6 -6 -7 -7 -8 -8 -8 -8
-5 -7 -8 -7 -8 -8 -8 -8 -9 -10 -9 -9 -9 -9 -9 -9 -9 -9 -9 -9 -9 -8 -8 -8 -8 -8 -7 -6 -6 -6 -6 -6 -6 -7 -7 -7 -7 -7 -7 -7 -7 -7 -8 -9
-8 -9 -10 -10 -10 -10 -10 -11 -10 -10 -10 -10 -10 -10 -10 -9 -9 -10 -10 -10 -10 -9 -9 -9 -9 -8 -8 -8 -7 -7 -7 -7 -7 -7 -8 -8 -8 -8 -8 -8 -8 -8 -9 -10
-10 -10 -10 -10 -10 -10 -11 -11 -11 -11 -11 -11 -11 -11 -11 -11 -11 -11 -11 -10 -10 -9 -10 -10 -10 -9 -8 -9 -8 -8 -8 -8 -8 -8 -8 -9 -9 -9 -9 -9 -10 -10 -11 -11
-11 -11 -11 -11 -11 -11 -11 -12 -12 -12 -12 -12 -12 -12 -12 -12 -12 -12 -11 -11 -11 -12 -12 -11 -10 -10 -9 -9 -9 -9 -9 -9 -9 -9 -9 -9 -10 -10 -10 -11 -11 -11 -12 -12
-12 -12 -12 -12 -12 -12 -12 -13 -13 -12 -13 -13 -12 -12 -12 -13 -13 -13 -12 -12 -13 -13 -12 -11 -11 -11 -11 -11 -10 -10 -10 -10 -10 -10 -11 -10 -11 -11 -12 -12 -12 -13 -13 -13
-13 -13 -13 -13 -13 -13 -13 -13 -13 -13 -13 -13 -13 -13 -13 -13 -13 -13 -13 -13 -14 -13 -13 -12 -12 -12 -12 -11 -11 -11 -11 -11 -11 -12 -12 -12 -13 -13 -13 -14 -14 -14 -14 -14
-13 -13 -13 -13 -13 -13 -13 -13 -13 -14 -13 -14 -14 -14 -14 -14 -14 -14 -14 -14 -14 -14 -13 -12 -12 -13 -13 -12 -12 -12 -12 -12 -13 -13 -13 -13 -14 -14 -14 -15 -15 -15 -15 -15
-13 -13 -13 -14 -14 -14 -13 -14 -14 -14 -14 -14 -14 -14 -15 -15 -15 -15 -15 -15 -15 -14 -14 -14 -14 -14 -14 -13 -14 -14 -14 -14 -14 -14 -14 -15 -15 -15 -15 -15 -15 -15 -16 -16
-13 -13 -13 -13 -13 -13 -14 -14 -14 -15 -15 -15 -15 -15 -15 -15 -15 -15 -15 -15 -15 -15 -14 -14 -14 -14 -14 -14 -14 -15 -15 -15 -15 -15 -15 -15 -15 -15 -16 -16 -16 -16 -16 -16
-13 -13 -13 -13 -13 -14 -14 -14 -14 -14 -15 -15 -15 -16 -16 -16 -15 -15 -15 -15 -15 -15 -15 -15 -15 -15 -15 -15 -15 -15 -16 -16 -16 -16 -16 -16 -16 -16 -16 -16 -16 -17 -17 -17
-13 -13 -13 -13 -14 -14 -14 -14 -15 -15 -15 -16 -16 -16 -17 -17 -17 -17 -17 -16 -16 -16 -16 -16 -16 -16 -16 -16 -16 -16 -16 -16 -16 -16 -16 -17 -17 -17 -17 -17 -17 -17 -17 -17

GFSNGP_850_temp_108.txt.gz
Temp
10 10 10 11 12 13 13 14 13 15 14 15 13 13 10 8 7 7 6 5 4 3 3 3 7 5 8 8 8 9 8 8 9 9 9 8 9 10 10 9 9 9 9 9
8 10 10 10 12 12 13 13 13 14 14 12 11 8 7 7 6 5 4 3 3 1 3 2 6 4 6 8 8 8 8 8 9 9 8 8 9 9 9 9 8 8 8 9
9 10 10 9 11 12 13 12 12 12 11 10 10 6 4 4 4 2 1 1 1 -0 1 2 4 2 4 8 8 8 9 9 9 8 9 9 9 8 9 8 8 8 8 8
8 9 8 10 11 12 12 12 11 10 9 10 7 3 2 1 1 0 -1 -1 -1 -1 -0 2 3 2 1 8 8 8 8 8 8 9 9 9 9 9 9 8 8 8 8 8
7 9 10 11 7 10 11 8 7 6 8 9 6 4 2 -0 -1 -2 -2 -1 -1 -2 -1 0 2 2 1 6 8 8 8 8 8 8 8 9 9 9 9 9 8 8 8 8
8 8 8 7 5 8 10 7 7 6 6 7 8 6 2 -1 -2 -1 -1 -1 -1 -1 -1 -1 1 2 0 4 6 6 7 7 8 8 8 8 8 9 8 8 8 8 8 8
7 8 9 7 6 6 8 6 4 4 4 4 3 1 -1 -2 -2 -2 -2 -1 -1 -1 -1 -1 -1 2 1 3 4 3 6 6 6 7 8 8 8 8 8 8 8 8 8 7
7 7 7 4 8 7 4 3 3 2 2 2 0 -1 -2 -3 -3 -2 -2 -1 -1 -1 -1 -1 1 1 -1 2 3 4 0 4 5 6 6 7 7 7 8 8 8 8 7 7
5 5 2 1 1 2 3 3 2 1 1 -0 -1 -2 -4 -4 -4 -4 -3 -2 -2 -2 -1 -0 1 2 1 1 2 2 2 3 4 4 5 5 6 6 6 6 6 6 5 4
3 2 1 -1 -1 -1 0 0 -0 -0 -0 -1 -2 -3 -4 -5 -5 -4 -4 -3 -2 -2 -2 -2 -1 -1 -1 -1 -1 -0 0 0 1 2 2 2 2 3 3 3 3 3 2 2
2 1 -1 -2 -2 -2 -2 -2 -2 -3 -3 -2 -3 -4 -5 -6 -5 -5 -4 -4 -3 -3 -3 -2 -1 -1 -1 -0 -3 -3 -3 -3 -2 -2 -1 -1 -1 -1 -1 -1 -0 0 -0 -0
2 -2 -1 -2 -4 -4 -4 -4 -4 -3 -4 -5 -5 -5 -5 -6 -6 -6 -5 -5 -4 -4 -4 -3 -2 -1 -1 -2 -3 -4 -3 -3 -4 -4 -4 -4 -4 -4 -4 -3 -3 -3 -3 -2
-2 -3 -3 -4 -4 -4 -4 -4 -5 -5 -6 -5 -6 -7 -7 -7 -7 -6 -7 -6 -5 -5 -5 -5 -4 -4 -3 -3 -3 -2 -4 -4 -4 -5 -6 -7 -6 -6 -6 -7 -6 -5 -5 -5
-3 -3 -4 -4 -5 -5 -6 -6 -6 -7 -7 -7 -7 -8 -8 -8 -8 -8 -7 -6 -6 -7 -6 -6 -5 -5 -5 -4 -4 -3 -4 -4 -4 -5 -5 -6 -6 -7 -7 -7 -7 -6 -6 -5
-4 -4 -5 -5 -6 -6 -6 -6 -6 -6 -7 -8 -9 -9 -9 -9 -10 -10 -8 -7 -7 -6 -6 -6 -5 -6 -6 -5 -5 -4 -4 -4 -5 -5 -5 -6 -7 -8 -8 -8 -8 -8 -8 -7
-5 -5 -6 -6 -7 -7 -6 -6 -6 -8 -8 -9 -9 -10 -10 -11 -11 -10 -9 -8 -7 -7 -7 -7 -7 -7 -6 -6 -6 -5 -5 -5 -6 -6 -7 -7 -8 -8 -8 -7 -7 -7 -7 -8
-4 -4 -6 -6 -7 -8 -8 -9 -9 -9 -10 -10 -11 -11 -11 -11 -11 -10 -9 -9 -9 -9 -8 -8 -9 -8 -8 -7 -7 -7 -7 -7 -7 -7 -7 -7 -7 -7 -8 -7 -7 -7 -8 -8
-9 -9 -9 -9 -8 -8 -10 -11 -11 -12 -12 -11 -10 -10 -10 -10 -10 -10 -10 -10 -10 -9 -9 -9 -9 -9 -8 -8 -7 -7 -7 -7 -7 -7 -7 -7 -7 -7 -8 -8 -8 -8 -9 -9
-11 -11 -11 -11 -11 -11 -12 -13 -13 -12 -12 -12 -11 -11 -11 -11 -11 -11 -11 -10 -10 -10 -10 -10 -10 -9 -8 -8 -8 -8 -8 -8 -8 -8 -8 -8 -8 -9 -9 -9 -9 -10 -11 -10
-12 -13 -12 -11 -11 -11 -12 -12 -12 -12 -12 -12 -12 -12 -12 -12 -12 -12 -12 -11 -10 -11 -11 -10 -10 -10 -9 -9 -9 -9 -9 -9 -9 -9 -9 -9 -9 -9 -10 -10 -10 -11 -11 -11
-12 -12 -12 -12 -12 -13 -13 -13 -13 -13 -13 -13 -13 -13 -13 -13 -13 -14 -14 -14 -12 -12 -12 -11 -11 -10 -10 -10 -10 -10 -10 -10 -10 -10 -10 -10 -11 -11 -11 -12 -12 -12 -12 -12
-13 -13 -13 -13 -13 -13 -13 -13 -13 -13 -13 -13 -13 -13 -14 -14 -14 -13 -13 -14 -13 -13 -12 -12 -12 -12 -12 -11 -11 -11 -11 -11 -11 -11 -11 -12 -12 -12 -13 -13 -13 -13 -13 -14
-13 -13 -13 -13 -13 -13 -14 -14 -14 -14 -14 -14 -14 -14 -15 -16 -16 -15 -16 -14 -14 -14 -13 -13 -12 -12 -12 -12 -12 -12 -12 -12 -12 -12 -13 -13 -14 -14 -14 -14 -14 -15 -15 -15
-13 -13 -13 -13 -14 -15 -14 -14 -14 -14 -14 -15 -15 -15 -17 -17 -16 -16 -15 -15 -14 -14 -14 -14 -14 -14 -13 -13 -13 -13 -13 -13 -14 -14 -14 -14 -14 -14 -15 -15 -15 -15 -15 -16
-13 -13 -14 -14 -15 -15 -15 -15 -15 -16 -17 -17 -17 -16 -16 -16 -17 -16 -16 -15 -15 -15 -15 -15 -14 -15 -14 -14 -14 -14 -14 -14 -15 -15 -15 -15 -15 -15 -16 -16 -16 -16 -16 -16
-14 -14 -14 -14 -14 -15 -15 -16 -16 -16 -17 -17 -18 -18 -17 -16 -16 -16 -16 -16 -16 -16 -16 -15 -15 -15 -15 -15 -15 -15 -15 -16 -16 -16 -16 -16 -16 -16 -16 -16 -16 -16 -17 -17
-14 -14 -14 -14 -15 -15 -15 -15 -16 -16 -17 -17 -18 -19 -18 -17 -17 -17 -17 -17 -17 -17 -17 -16 -16 -16 -16 -16 -16 -16 -16 -16 -16 -16 -16 -16 -17 -17 -17 -17 -17 -17 -17 -17

GFSNGP_850_temp_111.txt.gz
Temp
10 10 13 11 12 15 15 15 14 15 14 13 12 12 10 8 8 8 7 6 5 4 3 3 3 4 5 6 8 9 9 9 9 9 9 10 9 9 9 10 9 10 11 9
11 13 13 13 14 15 15 16 16 16 16 15 12 10 8 7 7 6 4 3 3 2 1 1 0 3 2 5 7 8 8 8 9 9 9 9 9 9 9 9 9 8 10 10
10 12 12 11 13 14 15 15 15 14 13 13 9 8 5 4 3 2 1 1 0 -1 -1 -1 1 2 1 5 6 8 8 8 8 8 9 8 9 8 9 9 9 8 9 9
9 10 9 12 14 14 14 13 13 13 12 12 8 3 1 1 1 1 -0 -1 -2 -2 -1 -1 0 0 1 4 6 8 8 8 8 8 8 8 8 8 9 9 8 8 8 8
9 10 12 13 9 8 9 8 9 9 9 9 5 3 1 1 0 -1 -2 -3 -2 -2 -2 -1 -0 -0 0 2 1 4 8 8 8 7 8 8 9 9 9 8 8 8 8 8
9 9 9 6 8 7 9 7 6 7 7 8 7 6 2 1 -1 -2 -3 -2 -2 -2 -2 -1 -1 -1 0 1 -0 0 3 6 7 7 8 8 8 8 8 8 8 8 8 8
9 9 9 8 9 7 7 5 5 6 6 5 4 2 0 -1 -2 -3 -3 -2 -2 -2 -2 -2 -1 -1 -1 0 -1 -1 -0 4 5 6 7 8 8 8 8 8 8 8 8 7
9 8 7 5 7 5 2 3 4 4 3 2 1 -0 -1 -2 -3 -3 -2 -2 -2 -2 -2 -1 -1 -1 -2 -2 -2 -3 -1 3 3 6 4 6 8 8 8 8 8 8 7 7
5 4 2 2 1 2 3 4 4 3 2 2 1 -1 -2 -3 -4 -3 -3 -3 -2 -2 -2 -3 -2 -3 -4 -2 -1 -2 2 2 2 2 2 3 6 6 7 7 7 6 6 5
6 0 -0 -1 -0 0 1 2 2 2 2 1 -0 -1 -2 -3 -5 -4 -4 -3 -3 -3 -2 -2 -3 -3 -3 -5 -4 -1 0 0 0 1 2 1 3 4 3 2 2 2 2 2
2 1 0 -1 -2 -2 -1 -0 0 -0 -0 -0 0 -1 -2 -3 -4 -5 -5 -4 -4 -4 -4 -3 -3 -3 -2 -2 -3 -2 -4 -6 -5 -4 -2 -3 -2 -2 -1 -1 -0 0 0 -0
2 -2 -1 -2 -3 -3 -3 -2 -2 -1 -2 -3 -2 -2 -3 -4 -5 -5 -6 -6 -6 -5 -5 -5 -4 -3 -3 -3 -2 -2 -2 -4 -4 -4 -4 -4 -5 -5 -5 -4 -3 -3 -3 -2
-2 -3 -3 -3 -4 -4 -5 -5 -5 -3 -3 -3 -4 -5 -4 -5 -6 -6 -7 -7 -7 -6 -6 -5 -5 -4 -4 -3 -3 -2 -4 -4 -4 -5 -6 -7 -7 -6 -6 -6 -5 -5 -5 -5
-3 -3 -3 -4 -4 -5 -5 -5 -5 -5 -5 -5 -5 -5 -6 -6 -7 -7 -8 -8 -9 -8 -6 -6 -6 -5 -6 -5 -4 -4 -4 -5 -5 -6 -6 -7 -7 -7 -7 -7 -7 -7 -7 -6
-4 -4 -4 -5 -5 -5 -5 -4 -4 -5 -5 -6 -7 -7 -8 -8 -9 -9 -10 -9 -9 -9 -7 -7 -6 -6 -6 -6 -6 -6 -6 -6 -7 -7 -7 -7 -8 -8 -8 -9 -8 -8 -8 -7
-4 -4 -5 -6 -6 -6 -6 -5 -4 -5 -6 -7 -7 -8 -9 -9 -10 -11 -11 -9 -9 -9 -9 -8 -8 -8 -7 -7 -7 -7 -7 -7 -8 -8 -9 -9 -9 -9 -10 -10 -9 -9 -10 -10
-3 -3 -4 -5 -7 -7 -7 -7 -7 -8 -8 -9 -10 -11 -10 -10 -11 -12 -11 -10 -9 -9 -9 -8 -9 -8 -8 -9 -9 -8 -8 -7 -8 -8 -9 -9 -9 -9 -9 -9 -8 -8 -8 -9
-6 -6 -7 -7 -6 -7 -8 -9 -10 -10 -12 -12 -12 -11 -11 -12 -13 -12 -11 -12 -12 -10 -10 -10 -9 -9 -8 -8 -9 -9 -9 -9 -9 -9 -9 -9 -10 -10 -11 -11 -11 -11 -11 -11
-9 -10 -10 -10 -9 -9 -10 -12 -12 -13 -13 -12 -11 -11 -11 -12 -13 -12 -12 -12 -13 -12 -11 -11 -10 -9 -9 -9 -9 -10 -10 -9 -10 -10 -10 -10 -11 -12 -12 -13 -13 -14 -14 -15
-11 -12 -13 -12 -12 -13 -14 -14 -14 -13 -13 -13 -13 -13 -12 -12 -12 -13 -13 -13 -13 -13 -12 -12 -13 -12 -11 -11 -11 -10 -10 -10 -11 -11 -12 -12 -13 -12 -13 -14 -14 -15 -15 -16
-13 -14 -14 -13 -13 -13 -13 -14 -14 -13 -13 -13 -14 -13 -13 -13 -12 -13 -13 -13 -13 -13 -14 -13 -12 -13 -13 -13 -12 -11 -12 -12 -12 -13 -13 -14 -14 -14 -15 -15 -15 -16 -16 -16
-14 -14 -15 -15 -15 -15 -15 -15 -14 -14 -14 -13 -13 -14 -14 -14 -14 -13 -14 -15 -15 -14 -15 -12 -12 -12 -14 -14 -14 -14 -14 -14 -14 -14 -14 -14 -15 -15 -16 -16 -16 -17 -17 -17
-14 -14 -14 -14 -15 -15 -14 -14 -14 -14 -15 -14 -15 -15 -15 -15 -15 -14 -15 -14 -16 -14 -15 -13 -13 -13 -14 -15 -15 -15 -15 -15 -15 -15 -15 -16 -16 -16 -16 -17 -17 -17 -18 -18
-14 -14 -14 -14 -14 -14 -14 -15 -15 -14 -14 -15 -14 -14 -15 -15 -16 -16 -17 -16 -14 -14 -14 -14 -14 -14 -16 -16 -16 -16 -16 -16 -17 -17 -17 -17 -17 -17 -18 -17 -17 -15 -15 -15
-14 -14 -14 -13 -13 -13 -14 -15 -14 -15 -15 -16 -16 -16 -17 -17 -16 -17 -17 -17 -15 -17 -17 -15 -15 -15 -17 -17 -17 -17 -16 -16 -17 -18 -18 -18 -18 -18 -18 -17 -18 -16 -16 -16
-12 -12 -13 -13 -13 -13 -13 -13 -13 -14 -14 -15 -16 -17 -17 -17 -18 -18 -17 -16 -17 -18 -18 -17 -16 -18 -17 -17 -17 -18 -18 -17 -17 -17 -17 -18 -17 -18 -17 -16 -16 -16 -16 -16
-13 -13 -12 -12 -13 -13 -14 -14 -14 -14 -15 -15 -16 -17 -17 -18 -18 -18 -18 -18 -19 -19 -19 -19 -19 -17 -18 -19 -19 -19 -18 -16 -16 -17 -18 -17 -18 -17 -17 -17 -17 -17 -17 -17

GFSNGP_850_temp_114.txt.gz
Temp
10 11 6 8 10 14 15 15 14 11 12 11 9 7 9 9 8 7 6 5 4 3 2 1 1 1 2 4 4 6 8 9 9 9 9 9 10 10 10 9 9 9 9 9
11 13 12 8 9 10 10 12 13 13 13 8 9 9 7 6 5 4 4 3 2 0 -1 -1 -0 1 -0 1 3 5 7 9 9 9 9 10 10 10 10 9 9 9 9 9
10 12 13 12 14 14 15 16 15 12 10 9 8 6 4 4 3 3 2 1 -1 -2 -2 -2 -1 -0 -1 -0 1 4 7 8 9 9 9 9 9 9 9 8 8 9 8 9
9 11 10 11 11 11 12 11 12 11 10 8 5 3 2 2 2 1 -1 -1 -2 -3 -2 -2 -1 -0 -1 -1 0 2 7 8 8 8 9 9 9 8 8 8 8 8 8 9
8 9 12 7 8 8 8 7 8 9 9 6 4 3 1 1 1 -1 -2 -3 -3 -3 -3 -2 -2 -1 -1 -1 -0 1 2 6 7 8 8 8 8 8 8 8 8 8 8 8
9 8 8 6 9 9 10 6 1 6 8 8 6 6 1 0 -1 -2 -3 -3 -3 -3 -3 -2 -2 -2 -2 -1 -1 0 1 1 4 7 8 8 8 8 8 8 8 8 8 8
9 9 6 5 7 9 8 4 2 3 4 3 3 1 -0 -1 -2 -3 -3 -3 -3 -3 -2 -3 -3 -2 -2 -2 -2 -2 -0 0 1 5 7 8 8 8 8 8 8 8 8 8
6 7 6 2 6 5 2 2 2 2 3 2 1 0 -0 -2 -3 -4 -4 -3 -3 -2 -2 -2 -3 -3 -2 -3 -3 -2 -0 -0 -0 2 2 6 7 8 8 8 7 7 8 7
4 3 1 0 1 0 1 3 3 3 3 2 1 0 -1 -2 -4 -4 -4 -4 -3 -3 -3 -2 -2 -3 -4 -5 -4 -2 -1 -0 0 0 0 1 2 5 6 6 7 6 6 6
4 1 1 -1 -1 -1 -1 -0 1 2 2 2 1 0 -1 -2 -4 -5 -5 -4 -4 -4 -4 -4 -3 -3 -4 -5 -5 -4 -2 -0 -0 -0 0 1 1 2 1 1 2 3 3 3
2 1 1 -2 -2 -2 -2 -2 -1 -0 -1 -0 0 -0 -2 -3 -4 -5 -5 -6 -5 -5 -5 -5 -4 -4 -4 -4 -4 -4 -4 -3 -3 -4 -3 -2 -1 -1 -1 -1 -1 -0 -0 0
1 -2 -1 -3 -3 -3 -3 -3 -3 -1 -1 -2 -2 -2 -3 -4 -5 -5 -6 -7 -7 -6 -6 -6 -5 -5 -5 -5 -4 -5 -5 -5 -4 -5 -4 -4 -5 -5 -5 -4 -3 -2 -3 -2
-2 -2 -3 -3 -4 -4 -4 -4 -5 -4 -3 -3 -3 -4 -4 -5 -6 -7 -7 -8 -8 -7 -7 -7 -6 -6 -6 -6 -6 -5 -6 -6 -6 -6 -7 -7 -7 -7 -7 -7 -5 -5 -6 -6
-3 -2 -3 -4 -4 -4 -4 -4 -5 -5 -5 -5 -5 -5 -6 -7 -8 -9 -8 -9 -8 -7 -7 -7 -7 -6 -7 -6 -7 -7 -6 -7 -7 -7 -7 -8 -8 -7 -6 -6 -7 -8 -8 -8
-3 -4 -4 -5 -5 -5 -5 -4 -4 -5 -5 -6 -7 -7 -8 -9 -10 -10 -10 -10 -10 -8 -7 -7 -7 -7 -7 -7 -7 -7 -8 -8 -8 -8 -8 -8 -8 -8 -8 -8 -9 -9 -9 -8
-3 -4 -5 -5 -6 -6 -6 -6 -6 -6 -7 -8 -9 -9 -9 -10 -10 -11 -11 -10 -9 -9 -9 -8 -8 -8 -8 -8 -8 -8 -8 -8 -8 -8 -8 -7 -7 -8 -8 -8 -8 -9 -10 -10
-3 -3 -4 -4 -6 -7 -8 -8 -8 -9 -10 -10 -11 -10 -10 -10 -11 -12 -12 -11 -10 -10 -10 -9 -9 -8 -8 -9 -9 -9 -8 -8 -8 -8 -8 -8 -8 -8 -8 -8 -8 -8 -9 -10
-6 -7 -7 -7 -6 -7 -8 -10 -11 -11 -12 -12 -12 -11 -11 -11 -12 -11 -11 -12 -11 -10 -10 -11 -10 -9 -9 -9 -9 -9 -9 -9 -8 -9 -9 -9 -9 -9 -9 -9 -9 -9 -11 -11
-9 -10 -10 -11 -10 -10 -11 -12 -13 -13 -13 -13 -13 -12 -12 -13 -12 -12 -11 -11 -11 -11 -11 -11 -11 -11 -10 -10 -10 -10 -10 -9 -10 -10 -10 -10 -10 -11 -11 -11 -11 -12 -12 -11
-11 -12 -13 -12 -11 -13 -13 -14 -14 -13 -13 -13 -13 -14 -13 -12 -12 -12 -12 -12 -13 -13 -12 -12 -12 -12 -12 -11 -11 -11 -11 -10 -10 -11 -11 -11 -11 -12 -12 -13 -13 -13 -13 -13
-13 -13 -13 -13 -14 -14 -14 -14 -14 -13 -13 -13 -14 -13 -13 -13 -13 -12 -13 -14 -14 -15 -13 -12 -11 -12 -13 -13 -12 -12 -12 -12 -12 -13 -13 -13 -14 -14 -14 -15 -15 -15 -15 -15
-13 -14 -14 -14 -14 -15 -14 -15 -14 -14 -14 -14 -14 -13 -13 -13 -13 -13 -14 -15 -15 -15 -13 -12 -13 -13 -13 -13 -13 -13 -13 -13 -13 -14 -14 -14 -14 -15 -15 -16 -16 -16 -16 -16
-13 -14 -14 -14 -14 -14 -14 -14 -14 -14 -14 -14 -14 -14 -15 -15 -14 -14 -15 -15 -14 -14 -14 -14 -14 -14 -15 -15 -15 -15 -14 -14 -15 -15 -15 -15 -15 -16 -16 -16 -17 -17 -17 -17
-13 -13 -14 -13 -13 -13 -13 -14 -14 -14 -15 -15 -15 -15 -14 -14 -15 -16 -16 -16 -16 -15 -14 -15 -15 -15 -15 -16 -16 -16 -16 -16 -16 -16 -16 -17 -16 -17 -17 -17 -16 -16 -16 -15
-12 -12 -12 -12 -12 -13 -13 -13 -13 -13 -14 -14 -15 -15 -16 -16 -16 -16 -17 -17 -17 -17 -16 -16 -16 -16 -16 -17 -16 -16 -16 -16 -17 -17 -17 -18 -18 -18 -18 -17 -17 -17 -17 -17
-11 -11 -12 -12 -12 -12 -13 -13 -13 -13 -13 -14 -15 -16 -16 -16 -17 -17 -17 -17 -17 -18 -18 -17 -17 -18 -17 -17 -17 -17 -17 -17 -17 -18 -18 -18 -18 -18 -18 -18 -18 -17 -17 -16
-12 -12 -12 -12 -12 -12 -13 -13 -13 -14 -14 -14 -15 -16 -16 -17 -17 -17 -17 -17 -18 -18 -18 -19 -18 -18 -18 -19 -19 -19 -18 -18 -18 -18 -18 -18 -18 -17 -17 -17 -17 -16 -16 -17

GFSNGP_850_temp_120.txt.gz
Temp
7 8 6 6 6 8 9 9 11 10 8 5 4 3 2 0 1 1 0 -1 -2 -2 1 2 3 3 3 3 3 4 4 4 5 5 7 8 8 9 9 10 10 10 11 11
6 9 5 6 8 7 7 6 8 7 6 4 3 2 2 0 -0 -0 -1 -2 -3 -1 0 1 1 1 1 2 2 2 3 3 3 4 5 7 8 9 9 9 10 10 11 11
6 8 8 6 4 5 4 4 6 7 5 3 2 2 -0 -0 -1 -1 -2 -3 -3 -3 -2 -1 -0 0 0 0 0 1 2 2 3 3 5 7 8 9 9 9 9 10 10 12
5 6 6 4 4 3 3 3 2 3 2 1 0 -0 -1 -2 -3 -3 -3 -2 -3 -3 -1 -1 -0 0 -0 0 1 1 1 1 2 3 4 6 7 9 9 9 9 10 10 9
4 5 5 5 3 3 3 3 2 2 2 1 0 1 -1 -3 -3 -3 -3 -3 -3 -3 -3 -2 -1 -0 -0 0 1 1 0 -0 1 2 3 5 7 9 8 9 9 9 9 9
4 6 5 3 2 3 3 3 2 1 1 1 1 2 -1 -3 -4 -4 -4 -4 -3 -3 -2 -2 -1 -1 -1 -1 -1 -1 -2 -2 -1 0 1 3 5 8 9 9 9 9 9 9
3 4 4 1 1 2 4 2 1 0 0 0 -0 -1 -3 -3 -4 -4 -4 -3 -3 -2 -2 -2 -2 -2 -1 -2 -3 -3 -2 -2 -1 -0 0 1 3 6 8 9 9 9 9 8
2 3 2 -0 1 2 0 -1 0 1 0 -0 -1 -2 -3 -4 -5 -5 -5 -4 -4 -4 -4 -3 -2 -2 -2 -3 -4 -3 -3 -2 -2 -1 -0 1 1 3 6 7 9 8 8 8
2 1 -0 -2 -1 -2 -1 -1 -2 -1 -0 -0 -1 -3 -4 -5 -5 -5 -5 -5 -5 -5 -4 -3 -3 -3 -3 -4 -5 -4 -3 -2 -2 -2 -2 -1 -0 1 -0 2 6 6 7 6
1 0 -1 -2 -2 -2 -2 -2 -2 -2 -2 -1 -2 -3 -4 -5 -6 -5 -6 -6 -5 -4 -4 -4 -4 -4 -5 -5 -5 -5 -4 -4 -3 -3 -3 -3 -4 -1 -1 -1 0 2 3 4
-0 -1 -2 -3 -3 -4 -3 -3 -3 -4 -4 -4 -4 -4 -5 -6 -7 -7 -7 -6 -6 -6 -5 -5 -5 -5 -5 -5 -5 -5 -5 -5 -5 -5 -4 -6 -7 -6 -3 -3 -2 -2 -2 1
-3 -2 -2 -3 -4 -4 -4 -4 -4 -4 -5 -5 -5 -6 -6 -6 -7 -8 -7 -7 -7 -7 -6 -6 -6 -6 -6 -6 -5 -5 -5 -6 -6 -5 -6 -6 -7 -7 -7 -7 -5 -4 -3 -1
-2 -3 -3 -4 -4 -4 -4 -4 -5 -5 -5 -6 -6 -6 -7 -7 -8 -8 -8 -8 -8 -8 -8 -8 -7 -7 -6 -7 -6 -6 -6 -6 -6 -6 -7 -6 -6 -7 -7 -7 -6 -6 -6 -6
-3 -3 -3 -4 -5 -5 -4 -4 -5 -6 -6 -7 -7 -7 -8 -8 -9 -9 -9 -9 -9 -9 -8 -8 -8 -8 -7 -7 -7 -6 -6 -7 -6 -7 -7 -7 -7 -7 -7 -7 -7 -7 -7 -6
-3 -3 -4 -5 -5 -5 -5 -6 -6 -7 -8 -8 -8 -9 -9 -9 -10 -10 -10 -9 -9 -9 -9 -9 -9 -9 -8 -8 -7 -7 -6 -6 -6 -7 -7 -7 -7 -7 -7 -7 -7 -7 -7 -6
-4 -5 -5 -6 -6 -7 -7 -7 -8 -9 -9 -9 -9 -10 -10 -10 -11 -10 -10 -10 -10 -10 -10 -10 -9 -9 -9 -8 -8 -8 -8 -8 -7 -7 -7 -7 -7 -7 -7 -7 -7 -7 -7 -8
-5 -7 -7 -7 -8 -8 -8 -9 -9 -10 -11 -11 -11 -11 -11 -11 -11 -11 -11 -11 -12 -11 -11 -10 -10 -10 -9 -9 -9 -9 -8 -8 -8 -8 -7 -7 -7 -7 -7 -7 -7 -7 -7 -8
-7 -8 -8 -8 -9 -9 -10 -10 -11 -12 -11 -12 -12 -11 -11 -11 -12 -12 -12 -12 -12 -11 -11 -11 -11 -10 -10 -10 -10 -9 -9 -9 -8 -8 -8 -8 -9 -9 -9 -8 -8 -8 -9 -9
-8 -9 -9 -9 -10 -10 -11 -11 -12 -12 -12 -12 -12 -12 -13 -12 -13 -13 -13 -12 -12 -12 -12 -12 -12 -11 -11 -10 -10 -10 -10 -10 -10 -10 -10 -10 -10 -10 -10 -10 -10 -11 -11 -11
-10 -10 -10 -10 -11 -11 -11 -12 -13 -12 -13 -13 -13 -13 -13 -13 -13 -13 -13 -13 -13 -13 -14 -13 -12 -12 -12 -12 -11 -11 -11 -11 -11 -11 -11 -11 -11 -11 -11 -11 -11 -12 -12 -12
-11 -11 -12 -11 -11 -12 -12 -12 -13 -13 -13 -13 -13 -13 -13 -14 -14 -14 -13 -13 -14 -14 -14 -13 -13 -13 -13 -12 -12 -12 -12 -12 -12 -12 -13 -13 -13 -13 -13 -13 -13 -13 -13 -13
-11 -11 -12 -12 -12 -12 -13 -13 -13 -13 -13 -13 -14 -14 -14 -14 -14 -15 -14 -14 -14 -14 -14 -14 -14 -14 -14 -13 -13 -13 -13 -13 -13 -14 -14 -14 -14 -14 -14 -14 -14 -15 -15 -15
-12 -12 -12 -12 -12 -12 -12 -13 -13 -13 -13 -14 -14 -14 -14 -15 -14 -14 -14 -15 -15 -15 -15 -14 -15 -15 -15 -14 -14 -14 -14 -14 -14 -15 -15 -15 -15 -15 -15 -15 -15 -16 -15 -15
-12 -12 -12 -12 -12 -13 -13 -13 -13 -14 -14 -14 -14 -14 -15 -15 -15 -15 -15 -16 -16 -16 -16 -16 -15 -15 -15 -15 -15 -15 -15 -16 -16 -16 -16 -16 -16 -16 -17 -16 -16 -16 -16 -16
-12 -12 -12 -12 -12 -13 -13 -13 -13 -14 -14 -15 -15 -15 -15 -16 -16 -16 -17 -17 -17 -17 -17 -17 -17 -17 -16 -16 -17 -17 -17 -17 -17 -17 -17 -17 -17 -17 -17 -17 -17 -17 -17 -17
-11 -12 -12 -12 -12 -12 -13 -13 -13 -13 -14 -15 -15 -15 -16 -16 -17 -17 -18 -18 -18 -18 -18 -18 -18 -18 -18 -17 -17 -17 -17 -18 -18 -18 -18 -18 -18 -18 -18 -18 -18 -18 -17 -17
-11 -12 -12 -12 -12 -13 -13 -13 -14 -14 -14 -15 -16 -16 -16 -17 -17 -17 -18 -18 -18 -19 -19 -19 -19 -19 -19 -19 -18 -19 -19 -18 -18 -18 -18 -18 -18 -18 -18 -18 -18 -17 -17 -17

GFSNGP_850_temp_123.txt.gz
Temp
5 7 4 5 6 6 6 7 7 7 5 3 2 1 -0 -1 -0 -1 -1 -1 0 0 2 2 3 3 3 3 4 4 5 5 5 6 6 7 6 7 8 9 10 10 10 10
5 8 5 4 5 5 5 5 7 5 4 2 0 0 -0 -0 -1 -1 -2 -3 -3 -3 -2 -2 0 1 1 3 3 3 2 2 3 3 4 4 5 5 7 9 9 9 10 10
5 7 6 5 2 3 3 3 4 5 3 1 0 -1 -2 -2 -2 -3 -3 -4 -4 -4 -3 -2 -2 -1 -0 0 1 1 1 1 2 2 3 4 5 6 7 8 9 9 10 9
4 5 5 3 2 3 3 2 2 2 1 0 -1 -2 -3 -3 -4 -4 -5 -5 -5 -4 -2 -1 -1 0 0 0 0 0 -0 0 0 1 2 3 4 5 7 8 8 9 9 9
4 5 4 5 3 2 2 2 1 1 2 1 -0 1 -2 -4 -5 -5 -5 -5 -4 -3 -2 -1 -0 -1 -2 -1 -1 -0 0 -0 -1 -0 0 1 3 5 6 8 8 9 9 9
3 5 4 2 2 1 2 2 1 1 0 0 1 2 -1 -4 -5 -5 -5 -5 -4 -3 -2 -1 -1 -1 -2 -2 -1 -1 -1 -1 -1 -1 -1 -0 1 4 6 7 8 8 9 9
2 4 3 0 1 1 3 1 -0 0 -1 -1 -1 -2 -4 -4 -4 -4 -5 -5 -5 -4 -4 -4 -3 -3 -2 -2 -2 -3 -2 -2 -2 -1 -2 -1 -0 1 3 5 8 8 8 8
2 2 1 -1 1 1 -0 -1 -2 -1 -1 -1 -2 -3 -3 -4 -5 -5 -5 -5 -4 -4 -4 -4 -4 -3 -3 -3 -4 -4 -3 -3 -3 -3 -3 -3 -1 -1 0 3 5 6 8 8
2 1 -1 -2 -2 -2 -2 -2 -2 -3 -2 -1 -3 -4 -4 -4 -5 -5 -6 -6 -5 -5 -5 -4 -3 -3 -4 -5 -5 -4 -3 -3 -4 -4 -4 -4 -2 -2 -1 -0 1 0 3 7
1 -0 -1 -2 -3 -3 -3 -3 -3 -3 -3 -3 -4 -4 -5 -6 -6 -6 -6 -6 -6 -6 -5 -5 -5 -5 -5 -5 -5 -4 -4 -4 -4 -5 -5 -5 -4 -5 -4 -2 -1 -1 -2 1
-0 -1 -2 -3 -4 -4 -4 -4 -4 -4 -4 -5 -5 -5 -6 -6 -7 -7 -7 -7 -7 -7 -7 -7 -6 -6 -6 -6 -5 -5 -5 -5 -5 -6 -6 -6 -7 -7 -7 -7 -4 -3 -4 -3
-6 -3 -2 -3 -4 -4 -4 -5 -5 -5 -5 -5 -6 -6 -7 -7 -8 -9 -8 -8 -8 -8 -8 -7 -7 -7 -6 -7 -7 -6 -6 -6 -6 -6 -6 -6 -6 -7 -7 -7 -6 -5 -5 -6
-2 -3 -3 -4 -4 -4 -4 -5 -5 -5 -6 -7 -7 -7 -8 -8 -9 -9 -9 -8 -9 -9 -9 -8 -7 -7 -7 -7 -7 -7 -7 -7 -6 -6 -6 -6 -6 -6 -7 -7 -6 -6 -6 -6
-3 -3 -4 -4 -5 -5 -4 -5 -6 -6 -7 -7 -8 -8 -9 -10 -9 -9 -9 -10 -10 -9 -9 -8 -8 -8 -8 -8 -8 -7 -7 -7 -7 -7 -7 -6 -7 -6 -6 -6 -6 -6 -6 -6
-3 -3 -4 -5 -6 -5 -6 -6 -7 -7 -8 -8 -9 -9 -10 -10 -11 -11 -11 -10 -10 -10 -9 -9 -8 -8 -8 -9 -8 -8 -8 -8 -8 -8 -8 -7 -7 -6 -7 -7 -7 -7 -6 -6
-4 -5 -6 -5 -6 -7 -7 -8 -8 -10 -10 -10 -10 -11 -11 -11 -11 -11 -11 -11 -10 -10 -10 -10 -9 -9 -9 -9 -9 -8 -8 -8 -8 -8 -8 -8 -8 -8 -7 -7 -7 -6 -7 -7
-5 -6 -7 -7 -7 -8 -8 -9 -10 -11 -11 -11 -11 -11 -11 -11 -11 -11 -12 -12 -11 -11 -11 -11 -10 -10 -10 -10 -9 -9 -9 -8 -8 -8 -8 -8 -9 -8 -9 -9 -9 -9 -9 -9
-6 -7 -7 -8 -8 -9 -9 -10 -11 -12 -11 -12 -12 -12 -12 -12 -12 -12 -12 -12 -12 -11 -11 -11 -11 -11 -10 -10 -10 -10 -10 -9 -9 -9 -9 -9 -9 -9 -9 -9 -9 -10 -11 -11
-8 -8 -9 -9 -9 -10 -10 -11 -11 -12 -12 -12 -12 -12 -12 -13 -13 -13 -13 -13 -12 -12 -12 -12 -12 -12 -11 -11 -11 -11 -10 -10 -10 -10 -10 -10 -10 -10 -10 -10 -10 -10 -10 -10
-8 -9 -9 -10 -10 -11 -11 -11 -12 -12 -12 -12 -13 -13 -13 -13 -13 -13 -13 -14 -14 -14 -14 -13 -13 -12 -12 -12 -12 -11 -11 -11 -12 -12 -12 -12 -11 -11 -12 -12 -11 -11 -11 -11
-9 -10 -10 -10 -11 -11 -11 -12 -13 -12 -13 -13 -13 -13 -13 -14 -14 -14 -13 -13 -14 -14 -14 -14 -13 -13 -13 -13 -13 -13 -13 -13 -13 -13 -13 -13 -13 -13 -13 -13 -13 -13 -13 -13
-10 -10 -11 -11 -11 -11 -12 -12 -13 -13 -13 -13 -13 -14 -14 -14 -14 -15 -15 -14 -15 -15 -15 -14 -14 -14 -14 -14 -14 -14 -14 -14 -14 -14 -14 -14 -14 -14 -14 -14 -14 -14 -14 -14
-10 -11 -11 -11 -11 -12 -12 -12 -13 -14 -14 -14 -14 -15 -15 -15 -15 -15 -15 -15 -15 -15 -15 -15 -15 -15 -15 -15 -15 -15 -15 -15 -15 -15 -15 -15 -16 -16 -16 -16 -15 -15 -16 -15
-11 -11 -12 -12 -12 -13 -13 -13 -13 -14 -14 -14 -15 -15 -15 -16 -16 -16 -16 -17 -17 -16 -16 -16 -16 -16 -16 -16 -16 -16 -16 -16 -16 -16 -16 -17 -17 -17 -17 -17 -17 -17 -17 -16
-11 -11 -12 -12 -12 -13 -13 -13 -13 -13 -14 -15 -15 -15 -15 -16 -16 -17 -17 -17 -18 -18 -17 -17 -17 -17 -16 -16 -16 -17 -17 -17 -17 -17 -17 -17 -17 -18 -18 -18 -18 -18 -18 -18
-11 -11 -12 -12 -12 -12 -12 -13 -13 -13 -14 -14 -15 -15 -16 -16 -17 -17 -17 -18 -18 -18 -18 -18 -18 -18 -18 -18 -18 -18 -18 -18 -18 -18 -18 -18 -18 -18 -18 -18 -18 -18 -18 -18
-12 -11 -12 -12 -12 -12 -12 -12 -13 -13 -14 -15 -15 -16 -16 -17 -17 -17 -18 -18 -18 -18 -19 -19 -19 -19 -19 -19 -19 -19 -19 -19 -19 -19 -19 -19 -18 -18 -18 -18 -18 -18 -18 -18

GFSNGP_850_temp_129.txt.gz
Temp
5 6 4 3 4 3 3 5 6 2 2 1 -0 -1 -2 -3 -4 -4 -4 -5 -5 -5 -4 -4 -1 1 0 1 3 3 3 3 4 7 7 7 9 9 9 9 9 9 10 10
5 6 5 3 3 4 2 3 4 3 2 1 -1 -2 -2 -3 -4 -5 -5 -6 -6 -5 -4 -3 -2 -2 -1 -1 0 1 2 2 5 5 5 6 6 6 6 7 7 7 8 8
6 6 5 4 2 2 2 2 2 2 1 -0 -1 -2 -4 -4 -5 -5 -6 -6 -6 -5 -4 -4 -2 -3 -2 -1 1 2 2 1 2 3 4 5 5 6 6 6 4 5 5 5
5 5 5 3 2 2 2 1 1 1 0 -0 -2 -3 -4 -5 -6 -6 -6 -6 -6 -5 -5 -5 -4 -3 -4 -3 -1 -1 -0 -0 1 2 3 3 4 3 2 2 2 3 5 6
5 5 4 4 2 1 1 1 0 1 0 -0 -1 -1 -3 -5 -6 -7 -7 -7 -6 -6 -6 -6 -4 -4 -4 -2 -2 -2 -4 -2 -1 -0 -1 0 0 0 -1 -0 1 2 3 5
4 4 4 2 1 0 0 2 -1 -1 -0 -1 -1 1 -2 -6 -7 -7 -6 -6 -6 -6 -6 -5 -4 -4 -3 -2 -3 -3 -4 -3 -3 -2 -2 -2 -1 -1 -1 -1 -0 0 2 3
3 4 2 -0 0 0 3 1 -2 -2 -2 -2 -1 -3 -5 -6 -8 -8 -7 -7 -6 -6 -6 -6 -5 -4 -4 -4 -4 -5 -4 -3 -3 -3 -3 -3 -2 -2 -2 -1 -1 -0 -0 1
3 2 2 -1 1 1 -2 -2 -2 -3 -3 -3 -4 -5 -6 -7 -8 -7 -7 -7 -7 -6 -6 -6 -5 -5 -5 -5 -5 -5 -5 -5 -4 -4 -3 -3 -3 -3 -2 -1 -2 -1 -1 0
2 2 -1 -2 -2 -3 -3 -3 -4 -4 -5 -4 -5 -6 -7 -8 -9 -8 -8 -8 -8 -8 -7 -7 -6 -7 -6 -6 -5 -5 -5 -5 -5 -5 -5 -5 -4 -4 -4 -3 -4 -4 -4 -2
1 -0 -2 -3 -3 -4 -4 -4 -5 -5 -6 -6 -7 -8 -8 -9 -10 -10 -9 -8 -8 -8 -8 -7 -7 -7 -7 -6 -6 -6 -5 -5 -5 -5 -5 -5 -6 -6 -7 -6 -5 -5 -6 -5
0 -1 -3 -3 -4 -4 -4 -5 -5 -6 -6 -7 -8 -9 -9 -10 -10 -10 -10 -9 -9 -9 -8 -8 -8 -7 -7 -7 -6 -7 -6 -6 -6 -6 -6 -6 -7 -7 -8 -9 -8 -7 -7 -7
1 -2 -2 -3 -4 -4 -5 -5 -6 -7 -8 -7 -8 -9 -10 -11 -11 -10 -10 -10 -9 -9 -9 -9 -8 -8 -8 -7 -7 -7 -7 -7 -7 -7 -6 -6 -6 -7 -7 -6 -7 -6 -6 -6
-2 -2 -2 -4 -4 -5 -5 -6 -6 -7 -8 -9 -9 -9 -10 -11 -11 -10 -11 -11 -11 -11 -10 -9 -9 -9 -9 -8 -8 -8 -8 -8 -7 -7 -7 -7 -6 -6 -6 -7 -6 -6 -6 -6
-2 -3 -4 -5 -6 -6 -5 -6 -7 -8 -8 -9 -10 -11 -11 -11 -11 -11 -11 -11 -11 -11 -11 -10 -10 -10 -9 -9 -9 -9 -9 -9 -8 -8 -8 -7 -7 -7 -7 -7 -6 -6 -7 -6
-3 -3 -3 -5 -6 -6 -7 -7 -8 -9 -10 -11 -11 -12 -11 -11 -11 -11 -11 -11 -11 -11 -11 -11 -11 -10 -10 -10 -10 -10 -9 -9 -9 -9 -9 -8 -7 -7 -8 -7 -7 -7 -7 -7
-4 -5 -5 -6 -7 -7 -8 -8 -9 -11 -11 -11 -11 -12 -12 -12 -12 -12 -12 -12 -12 -12 -12 -12 -11 -11 -11 -10 -10 -10 -10 -10 -9 -9 -9 -8 -8 -8 -8 -8 -8 -8 -8 -8
-5 -6 -7 -7 -8 -8 -8 -9 -10 -10 -11 -11 -11 -12 -12 -12 -12 -12 -12 -13 -13 -13 -13 -12 -12 -12 -12 -11 -11 -11 -11 -11 -10 -10 -9 -9 -9 -9 -10 -10 -10 -10 -11 -10
-5 -5 -6 -7 -7 -8 -9 -10 -10 -11 -11 -12 -12 -12 -12 -12 -12 -13 -13 -13 -13 -12 -12 -13 -13 -13 -12 -12 -12 -12 -12 -12 -11 -11 -11 -11 -11 -11 -11 -11 -11 -12 -12 -11
-6 -6 -7 -7 -8 -9 -9 -10 -10 -11 -11 -12 -12 -12 -12 -12 -12 -13 -13 -13 -12 -12 -12 -13 -13 -13 -13 -13 -13 -13 -13 -13 -13 -13 -13 -12 -12 -12 -12 -12 -12 -12 -12 -12
-7 -7 -8 -8 -8 -9 -9 -10 -11 -11 -11 -12 -12 -13 -12 -12 -13 -13 -13 -13 -13 -14 -14 -13 -13 -13 -13 -13 -13 -13 -14 -14 -14 -14 -14 -14 -13 -13 -13 -13 -13 -13 -13 -13
-7 -8 -8 -8 -9 -9 -10 -10 -11 -11 -11 -12 -12 -12 -12 -12 -13 -13 -13 -13 -13 -14 -14 -13 -13 -13 -13 -14 -14 -14 -14 -14 -14 -15 -15 -15 -15 -15 -15 -14 -14 -14 -14 -14
-8 -8 -9 -9 -9 -9 -10 -10 -11 -11 -11 -12 -12 -12 -12 -12 -12 -13 -13 -14 -14 -14 -14 -14 -14 -14 -14 -14 -14 -15 -15 -15 -15 -15 -16 -16 -16 -16 -16 -16 -16 -16 -15 -15
-8 -8 -8 -9 -9 -10 -10 -11 -11 -12 -12 -12 -12 -12 -12 -13 -13 -14 -14 -14 -15 -15 -15 -15 -15 -15 -14 -14 -15 -15 -15 -15 -16 -16 -16 -17 -17 -17 -17 -17 -17 -17 -17 -17
-8 -9 -9 -9 -10 -10 -10 -11 -12 -12 -13 -13 -13 -13 -13 -14 -14 -15 -15 -16 -16 -16 -16 -16 -16 -15 -15 -15 -15 -16 -16 -16 -16 -16 -17 -17 -17 -18 -18 -18 -18 -18 -18 -17
-9 -9 -9 -10 -10 -11 -11 -12 -13 -13 -13 -14 -14 -14 -14 -14 -15 -16 -16 -16 -17 -17 -17 -17 -17 -16 -16 -16 -16 -16 -16 -17 -17 -17 -17 -17 -17 -18 -18 -18 -18 -18 -18 -18
-9 -9 -9 -10 -11 -11 -12 -12 -13 -13 -13 -14 -14 -14 -15 -15 -15 -16 -16 -17 -17 -17 -17 -17 -17 -17 -17 -17 -17 -17 -17 -18 -18 -18 -18 -18 -18 -18 -18 -18 -18 -18 -18 -18
-10 -10 -11 -12 -11 -11 -12 -12 -12 -13 -13 -14 -14 -14 -15 -15 -16 -16 -16 -17 -17 -17 -17 -17 -17 -18 -17 -18 -18 -18 -18 -18 -18 -19 -19 -19 -19 -19 -19 -19 -19 -19 -19 -19

GFSNGP_850_temp_132.txt.gz
Temp
8 9 6 4 6 5 4 6 7 3 3 1 0 -1 -2 -3 -4 -4 -4 -5 -5 -5 -6 -4 -3 -2 -2 -1 -1 -2 -0 3 3 6 7 6 8 9 8 8 9 10 11 11
8 9 6 5 6 7 5 3 5 4 4 1 -0 -0 -0 -1 -4 -4 -5 -5 -5 -6 -6 -6 -6 -3 -3 0 -2 -2 2 4 2 5 6 5 7 7 6 6 7 7 7 7
9 9 5 5 3 4 3 3 3 3 2 1 2 0 -2 -2 -3 -4 -5 -6 -6 -6 -7 -7 -7 -6 -4 -2 -3 -2 -1 -2 0 3 5 6 6 5 3 3 2 2 3 4
8 9 7 2 3 2 2 2 1 2 1 2 -0 -1 -2 -4 -4 -5 -6 -6 -7 -7 -7 -8 -7 -6 -6 -7 -6 -5 -6 -4 -1 -1 -0 2 2 1 0 -1 -0 1 2 2
8 8 4 4 4 3 3 2 2 1 2 2 1 0 -0 -4 -5 -6 -6 -7 -7 -8 -6 -4 -4 -6 -6 -5 -5 -4 -3 -4 -2 -2 -3 -1 -2 -3 -3 -2 -1 -0 0 1
7 7 7 5 4 2 2 3 1 1 1 1 2 3 1 -5 -5 -6 -7 -8 -8 -8 -8 -6 -6 -5 -4 -4 -5 -5 -4 -3 -2 -2 -2 -2 -3 -3 -3 -4 -4 -3 -1 -0
6 7 4 3 3 1 3 2 -0 -0 -1 -1 -0 -2 -4 -5 -6 -7 -7 -8 -8 -8 -8 -7 -6 -6 -5 -5 -5 -5 -4 -4 -3 -3 -3 -3 -3 -3 -2 -2 -5 -5 -3 -2
6 6 5 2 4 4 -1 -1 -1 -1 -2 -2 -3 -4 -5 -6 -6 -7 -9 -9 -9 -9 -9 -9 -7 -6 -5 -5 -6 -5 -5 -4 -4 -3 -3 -3 -3 -3 -4 -4 -4 -4 -3 -2
5 3 1 1 -1 -2 -2 -2 -3 -3 -3 -3 -3 -4 -5 -6 -7 -8 -10 -10 -9 -10 -9 -9 -9 -8 -8 -7 -6 -5 -5 -5 -5 -4 -4 -4 -4 -4 -6 -5 -4 -4 -4 -5
3 1 1 -0 -1 -2 -2 -3 -4 -4 -4 -4 -4 -5 -6 -7 -7 -8 -10 -10 -10 -10 -10 -9 -9 -9 -8 -7 -7 -6 -6 -5 -5 -4 -4 -4 -4 -5 -6 -5 -6 -6 -5 -6
1 0 -1 -1 -2 -2 -4 -4 -5 -6 -6 -5 -5 -6 -7 -7 -8 -9 -9 -10 -10 -11 -11 -11 -11 -10 -10 -9 -8 -7 -8 -7 -6 -7 -6 -5 -6 -6 -6 -7 -7 -7 -6 -7
2 0 0 -2 -3 -3 -4 -4 -5 -5 -6 -7 -7 -8 -8 -8 -9 -9 -10 -10 -10 -11 -11 -11 -11 -10 -9 -10 -9 -7 -8 -8 -8 -8 -7 -8 -7 -7 -8 -7 -7 -6 -7 -7
-1 -2 -2 -4 -4 -4 -5 -6 -6 -7 -7 -8 -9 -8 -9 -9 -10 -10 -11 -11 -11 -12 -12 -11 -11 -9 -9 -9 -10 -9 -9 -8 -8 -7 -7 -8 -9 -9 -7 -7 -8 -8 -7 -7
-2 -3 -4 -4 -5 -6 -6 -7 -8 -8 -9 -9 -9 -9 -10 -10 -10 -11 -12 -12 -12 -12 -12 -12 -12 -10 -10 -9 -10 -9 -9 -8 -9 -9 -9 -9 -10 -11 -11 -11 -9 -8 -8 -8
-3 -3 -3 -5 -6 -7 -7 -8 -8 -8 -9 -10 -10 -10 -11 -11 -12 -12 -13 -13 -13 -13 -11 -11 -11 -11 -10 -10 -10 -10 -10 -9 -9 -10 -10 -11 -12 -12 -12 -12 -12 -12 -8 -8
-4 -4 -5 -6 -7 -7 -8 -8 -8 -9 -10 -10 -10 -11 -12 -12 -12 -12 -12 -12 -12 -12 -12 -12 -12 -12 -11 -11 -11 -12 -12 -10 -10 -11 -11 -12 -13 -13 -13 -13 -13 -13 -12 -10
-4 -5 -5 -6 -7 -7 -8 -8 -9 -9 -10 -11 -12 -12 -12 -12 -11 -11 -12 -12 -12 -12 -12 -12 -12 -12 -12 -12 -13 -13 -13 -13 -11 -12 -12 -13 -14 -14 -14 -14 -14 -14 -15 -12
-4 -3 -4 -5 -7 -8 -9 -10 -10 -11 -11 -11 -11 -11 -11 -11 -11 -11 -12 -12 -12 -12 -12 -12 -12 -12 -12 -12 -14 -14 -14 -14 -14 -14 -14 -14 -15 -15 -15 -15 -15 -15 -16 -15
-5 -6 -6 -7 -8 -9 -10 -10 -10 -10 -10 -10 -11 -11 -11 -11 -11 -11 -12 -12 -11 -11 -12 -12 -12 -12 -12 -13 -14 -14 -15 -15 -15 -15 -15 -16 -16 -16 -16 -16 -16 -17 -17 -16
-6 -6 -7 -7 -8 -8 -8 -9 -9 -10 -10 -11 -11 -11 -11 -11 -11 -12 -12 -11 -11 -12 -12 -12 -12 -13 -13 -13 -14 -15 -15 -15 -15 -15 -16 -16 -16 -17 -17 -17 -17 -17 -18 -18
-6 -7 -7 -7 -8 -8 -9 -9 -10 -10 -10 -11 -11 -11 -11 -11 -12 -12 -13 -15 -12 -12 -12 -12 -12 -12 -13 -13 -15 -16 -16 -16 -16 -16 -17 -17 -17 -17 -17 -18 -18 -18 -18 -19
-7 -7 -7 -8 -8 -8 -9 -9 -10 -10 -10 -11 -11 -11 -11 -12 -12 -12 -12 -12 -13 -12 -13 -13 -13 -12 -13 -14 -15 -16 -17 -17 -17 -17 -18 -18 -18 -18 -18 -18 -19 -19 -19 -19
-7 -7 -8 -8 -8 -9 -9 -10 -10 -11 -11 -11 -11 -12 -13 -13 -14 -15 -15 -13 -13 -13 -13 -13 -13 -13 -13 -14 -15 -16 -17 -17 -18 -18 -18 -19 -19 -19 -19 -19 -19 -19 -18 -20
-7 -8 -8 -9 -9 -10 -10 -10 -11 -11 -12 -12 -12 -12 -12 -14 -14 -13 -13 -13 -13 -14 -14 -14 -14 -14 -14 -14 -15 -15 -16 -17 -18 -19 -19 -19 -20 -20 -20 -18 -18 -18 -18 -18
-8 -8 -8 -9 -9 -10 -10 -10 -11 -12 -12 -13 -12 -12 -12 -13 -14 -14 -14 -14 -14 -14 -15 -14 -15 -15 -15 -15 -15 -16 -17 -16 -16 -17 -18 -19 -20 -20 -20 -19 -18 -18 -18 -18
-8 -8 -8 -9 -10 -10 -11 -11 -12 -13 -14 -14 -15 -14 -13 -13 -13 -13 -13 -14 -14 -15 -16 -15 -15 -15 -16 -16 -16 -16 -17 -17 -18 -18 -18 -18 -19 -19 -19 -18 -18 -18 -18 -18
-9 -9 -9 -10 -10 -11 -11 -11 -13 -13 -13 -14 -14 -15 -15 -14 -14 -15 -15 -15 -15 -15 -15 -16 -16 -16 -16 -16 -17 -17 -17 -18 -17 -18 -18 -19 -19 -19 -19 -19 -19 -19 -19 -19